Вернуться в каталог

GRUS-3ALPHA

АктивенНаукаSSO
NORAD 64579·PAYLOAD·🇯🇵 Japan

Запущен Jun 23, 2025 с Vandenberg Space Force Base

Loading…

Ближайшие Пролёты (ближайшие 24 часа)

TLE

СвежийSource: Space-Track

Эпоха: Sep 14, 2026, 14:47 UTC

1 64579U 25135BD  26257.61638922  .00001007  00000-0  10151-3 0  9995
2 64579  97.7839  10.9072 0004255  68.1270 292.0401 14.93318573 67224

Отслеживайте GRUS-3ALPHA в реальном времени с AllMySat

Download on the App Store